{"data":{"norad_id":59545,"epoch":"2026-05-25T01:55:55.333056Z","epoch_age_seconds":78126,"freshness":"FRESH","line1":"1 59545U 24074M   26145.08050154 -.00005783  00000+0 -20056-3 0  9996","line2":"2 59545  43.0068 272.4253 0004450 274.3426  85.6917 15.27601749117699","mean_motion":15.27601749,"eccentricity":0.000445,"inclination_deg":43.0068,"raan_deg":272.4253,"arg_perigee_deg":274.3426,"mean_anomaly_deg":85.6917,"bstar":-0.00020056,"rev_number":11769,"period_min":94.265406605004,"perigee_km":479.9307736494,"apogee_km":486.03717131491,"semimajor_km":6861.1209724822,"source":"CELESTRAK","updated_at":"2026-05-25T13:38:18.980963Z"}}